Tracking 25370 objects as of 25-Jan-2022
HD Live streaming from Space Station
objects crossing your sky now

STARLINK-2456

Track STARLINK-2456 now!
10-day predictions
STARLINK-2456 is classified as:


NORAD ID: 47846
Int'l Code: 2021-018BM
Perigee: 553.0 km
Apogee: 555.7 km
Inclination: 53.1 °
Period: 95.6 minutes
Semi major axis: 6925 km
RCS: Unknown
Launch date: March 11, 2021
Source: United States (US)
Launch site: AIR FORCE EASTERN TEST RANGE (AFETR)
aabbcc
Your satellite tracking list
Your tracking list is empty




NASA's NSSDC Master Catalog

Two Line Element Set (TLE):
1 47846U 21018BM  22025.09668802  .00000417  00000-0  46911-4 0  9998
2 47846  53.0542 166.0049 0001945  84.7014 275.4197 15.06402662 49481
Source of the keplerian elements: AFSPC